WB5OMR-9 Weather Reports


time (UTC)temp
C
wind
direction
speed
KPH
gust
KPH
rain 1hr
cm
rain 24hr
cm
rain mn
cm
humidity
%
barometer
mb
20260504081402 17 0.0 0.0 0.00 0.00 0.00 78 1014.9
20260504080401 17 0.0 0.0 0.00 0.00 0.00 77 1015.6
20260504070231 18 0.0 0.0 0.00 0.00 0.00 74 1015.9
20260504060142 18 0.0 0.0 0.00 0.00 0.00 72 1016.6
20260504050010 19 0.0 0.0 0.00 0.00 0.00 68 1016.9
20260504045008 19 0.0 0.0 0.00 0.00 0.00 68 1016.9
20260504044007 20 0.0 0.0 0.00 0.00 0.00 67 1016.9
20260504042924 20 0.0 0.0 0.00 0.00 0.00 67 1016.9
20260504041840 20 0.0 0.0 0.00 0.00 0.00 66 1016.9
20260504040757 20 0.0 0.0 0.00 0.00 0.00 66 1016.9
20260504035756 20 0.0 0.0 0.00 0.00 0.00 65 1016.9
20260504034754 20 0.0 0.0 0.00 0.00 0.00 65 1016.6
20260504033753 20 0.0 0.0 0.00 0.00 0.00 65 1016.9
20260504032752 20 0.0 0.0 0.00 0.00 0.00 64 1016.9
20260504031750 20 0.0 0.0 0.00 0.00 0.00 64 1016.9
20260504030749 20 0.0 0.0 0.00 0.00 0.00 63 1016.9
20260504025748 20 0.0 0.0 0.00 0.00 0.00 63 1016.6
20260504024747 20 0.0 0.0 0.00 0.00 0.00 63 1016.6
20260504023704 20 0.0 0.0 0.00 0.00 0.00 64 1016.6
20260504022702 21 0.0 0.0 0.00 0.00 0.00 62 1016.6
20260504021701 21 0.0 0.0 0.00 0.00 0.00 60 1016.6
20260504020700 21 0.0 0.0 0.00 0.00 0.00 59 1016.6
20260504015659 22 0.0 0.0 0.00 0.00 0.00 58 1016.6
20260504014657 22 0.0 0.0 0.00 0.00 0.00 55 1016.6
20260504013655 22 0.0 0.0 0.00 0.00 0.00 53 1016.6
20260504012653 23 0.0 0.0 0.00 0.00 0.00 52 1016.6
20260504011652 23 0.0 0.0 0.00 0.00 0.00 50 1016.3
20260504010651 23 0.0 0.0 0.00 0.00 0.00 49 1016.3
20260504005650 24 0.0 0.0 0.00 0.00 0.00 48 1016.6
20260504004649 25 0.0 0.0 0.00 0.00 0.00 47 1016.6
20260504003648 25 0.0 0.0 0.00 0.00 0.00 46 1016.6
20260504002647 25 0.0 0.0 0.00 0.00 0.00 45 1016.6
20260504001646 25 0.0 0.0 0.00 0.00 0.00 44 1016.6
20260504000645 26 0.0 0.0 0.00 0.00 0.00 43 1016.6
20260503235643 26 0.0 0.0 0.00 0.00 0.00 42 1016.6
20260503234600 26 0.0 0.0 0.00 0.00 0.00 41 1016.6
20260503233559 27 0.0 0.0 0.00 0.00 0.00 40 1016.6
20260503232558 27 0.0 0.0 0.00 0.00 0.00 40 1016.9
20260503231556 27 0.0 0.0 0.00 0.00 0.00 40 1016.9
20260503230555 27 0.0 0.0 0.00 0.00 0.00 39 1017.3
20260503225554 27 0.0 0.0 0.00 0.00 0.00 39 1017.3
20260503224553 28 0.0 0.0 0.00 0.00 0.00 39 1016.9
20260503223552 28 0.0 0.0 0.00 0.00 0.00 39 1017.3
20260503222551 28 0.0 0.0 0.00 0.00 0.00 40 1017.3
20260503221550 28 0.0 0.0 0.00 0.00 0.00 39 1017.6
20260503220548 28 0.0 0.0 0.00 0.00 0.00 38 1017.6
20260503215547 28 0.0 0.0 0.00 0.00 0.00 38 1017.9
20260503214546 28 0.0 0.0 0.00 0.00 0.00 39 1017.9
20260503213545 28 0.0 0.0 0.00 0.00 0.00 39 1018.3
20260503212544 28 0.0 0.0 0.00 0.00 0.00 38 1018.3
20260503211543 28 0.0 0.0 0.00 0.00 0.00 40 1018.6
20260503210541 28 0.0 0.0 0.00 0.00 0.00 40 1019.0
20260503205458 28 0.0 0.0 0.00 0.00 0.00 39 1019.3
20260503204457 28 0.0 0.0 0.00 0.00 0.00 40 1019.3
20260503203456 28 0.0 0.0 0.00 0.00 0.00 40 1019.6
20260503202454 27 0.0 0.0 0.00 0.00 0.00 40 1019.6
20260503201453 27 0.0 0.0 0.00 0.00 0.00 40 1020.0
20260503200452 27 0.0 0.0 0.00 0.00 0.00 41 1020.0
20260503195408 27 0.0 0.0 0.00 0.00 0.00 40 1020.3
20260503194325 27 0.0 0.0 0.00 0.00 0.00 40 1020.7
20260503193324 27 0.0 0.0 0.00 0.00 0.00 40 1020.7
20260503192322 27 0.0 0.0 0.00 0.00 0.00 42 1020.7
20260503191321 27 0.0 0.0 0.00 0.00 0.00 41 1020.7
20260503190320 27 0.0 0.0 0.00 0.00 0.00 41 1020.7
20260503185319 27 0.0 0.0 0.00 0.00 0.00 42 1021.0
20260503184318 27 0.0 0.0 0.00 0.00 0.00 42 1021.0
20260503183316 27 0.0 0.0 0.00 0.00 0.00 41 1021.3
20260503182315 27 0.0 0.0 0.00 0.00 0.00 41 1021.3
20260503181314 27 0.0 0.0 0.00 0.00 0.00 42 1021.7
20260503180313 27 0.0 0.0 0.00 0.00 0.00 43 1021.7
20260503175312 27 0.0 0.0 0.00 0.00 0.00 43 1022.0
20260503174311 27 0.0 0.0 0.00 0.00 0.00 45 1022.0
20260503173310 27 0.0 0.0 0.00 0.00 0.00 45 1022.4
20260503172308 27 0.0 0.0 0.00 0.00 0.00 46 1022.4
20260503171307 27 0.0 0.0 0.00 0.00 0.00 46 1022.4
20260503170306 26 0.0 0.0 0.00 0.00 0.00 47 1022.7
20260503140249 16 0.0 0.0 0.00 0.00 0.00 86 1022.4
20260503131244 11 0.0 0.0 0.00 0.00 0.00 88 1021.7
20260503130242 11 0.0 0.0 0.00 0.00 0.00 88 1021.7